Вернуться в каталог

FENGYUN 1C DEB

АктивенPO
NORAD 30676·DEBRIS·🇨🇳 China

Запущен May 10, 1999 с Taiyuan Satellite Launch Center

Loading…

Ближайшие Пролёты (ближайшие 24 часа)

TLE

СвежийSource: Space-Track

Эпоха: Sep 14, 2026, 05:03 UTC

1 30676U 99025AQJ 26257.21087484  .00000606  00000-0  30248-3 0  9995
2 30676  98.2916  52.6074 0468122  20.4946 341.4319 13.74983126977081

Отслеживайте FENGYUN 1C DEB в реальном времени с AllMySat

Download on the App Store